Regional Weather Roundup
Issued by NWS

Home | Current Version | Previous Version | Graphics & Text | Print | Product List | Glossary On
Versions: 1 2 3 4 5 6 7 8 9 10 11 12 13 14 15 16 17 18 19 20 21 22 23 24 25 26 27 28 29 30 31 32 33 34 35 36 37 38 39 40 41 42 43 44 45 46 47 48 49 50
000
ASUS45 KABQ 270810
RWRNM
WEATHER ROUNDUP FOR NEW MEXICO
NATIONAL WEATHER SERVICE ALBUQUERQUE NM
200 AM MDT FRI MAR 27 2015

NOTE: "FAIR" MEANS FEW OR NO CLOUDS BELOW 12,000 FEET AGL WITH NO
       SIGNIFICANT WEATHER OR OBSTRUCTIONS TO VISION.

      THIS PRODUCT IS RELEASED AS TWO VERSIONS.  ONE VERSION NEAR
      THE TOP OF THE HOUR CONTAINING PRELIMINARY DATA FROM ALBUQUERQUE
      AND OTHER STATIONS.  A FINAL VERSION WITH ADDITIONAL DATA IS
      ISSUED ABOUT 10 MINUTES AFTER THE HOUR.

NMZ501-503-504-510>518-270900-
NORTHWEST PLATEAU/NORTHCENTRAL MOUNTAINS

CITY           SKY/WX    TMP DP  RH WIND       PRES   REMARKS
FARMINGTON     CLEAR     47  16  29 SW6       30.27S
LOS ALAMOS     PTCLDY    47  15  27 CALM      30.31S
SANTA FE       PTCLDY    34  17  50 N5        30.27S WCI  30
TAOS           PTCLDY    34  16  47 N5        30.31S WCI  30
ANGEL FIRE     FAIR      33  19  57 CALM      30.33S

$$
NMZ402-403-502-505>509-270900-
WESTCENTRAL MOUNTAINS/SOUTHWEST MOUNTAINS

CITY           SKY/WX    TMP DP  RH WIND       PRES   REMARKS
GALLUP         CLEAR     28   9  44 E5        30.35S WCI  23
GRANTS         CLEAR     31  18  57 W5        30.36S WCI  26
SILVER CITY    CLEAR     39  23  52 N10       30.31F WCI  32

$$
NMZ407-409-411-412-270900-
SOUTHERN DESERTS

CITY           SKY/WX    TMP DP  RH WIND       PRES   REMARKS
LORDSBURG      FAIR      43  23  45 SE7       30.26S
DEMING         CLEAR     42  23  46 W5        30.26F
LAS CRUCES     CLEAR     42  17  37 SW5       30.27F
HOLLOMAN AFB   PTCLDY    44  20  38 CALM      30.24S
ALAMOGORDO     PTCLDY    45  18  33 E3        30.26S
T OR C         CLEAR     46  20  35 W6        30.25S

$$
NMZ519>523-270900-
CENTRAL VALLEYS/CENTRAL HIGHLANDS

CITY           SKY/WX    TMP DP  RH WIND       PRES   REMARKS
ALBUQUERQUE    PTCLDY    48  19  31 SE3       30.27S
DOUBLE EAGLE   CLEAR     40  17  39 CALM      30.29S
MORIARTY ARPT  FAIR      37  16  42 CALM      30.28F
CLINES CORNERS MOCLDY    44  16  32 NW13      30.26S
BELEN          FAIR      37  20  50 NW5       30.26F WCI  34
SOCORRO        FAIR      46  17  31 S8        30.26S

$$
NMZ524>526-539-540-270900-
SOUTHCENTRAL MOUNTAINS

CITY           SKY/WX    TMP DP  RH WIND       PRES   REMARKS
RUIDOSO        PTCLDY    45  14  29 W7        30.30F

$$
NMZ527>531-270900-
NORTHEAST HIGHLANDS/NORTHEAST PLAINS

CITY           SKY/WX    TMP DP  RH WIND       PRES   REMARKS
LAS VEGAS      PTCLDY    40  18  41 N5        30.25S
RATON          CLEAR     34  21  59 N3        30.24S
CLAYTON        CLEAR     42  24  49 W8        30.19F

$$
NMZ532>537-270900-
EASTCENTRAL PLAINS

CITY           SKY/WX    TMP DP  RH WIND       PRES   REMARKS
TUCUMCARI      PTCLDY    38  23  55 E6        30.18S WCI  33
CANNON AFB     NOT AVBL
CLOVIS AIRPORT PTCLDY    41  23  48 W9        30.21R

$$
NMZ028-029-538-270900-
SOUTHEAST PLAINS

CITY           SKY/WX    TMP DP  RH WIND       PRES   REMARKS
ROSWELL        PTCLDY    38  26  62 E3        30.19S
ARTESIA        CLEAR     41  25  52 CALM      30.21R
CARLSBAD       CLEAR     43  30  60 S6        30.18F
HOBBS          CLEAR     39  23  52 SW8       30.22S WCI  34


$$



USA.gov is the U.S. government's official web portal to all federal, state and local government web resources and services.